timestamp,surface_pressure_avg,surface_temp_avg,battery_voltage,lat,long
2020-12-01 00:09:01+00:00,342.9713,6.5,12.73,47.84626,-54.09684
2020-12-01 00:19:01+00:00,341.0197,6.5,12.65,47.84626,-54.09684
2020-12-01 00:29:01+00:00,335.9947,6.5,12.65,47.84626,-54.09684
2020-12-01 00:39:01+00:00,328.5396,6.5,12.65,47.84626,-54.09684
2020-12-01 00:49:01+00:00,320.7714,6.5,12.65,47.84626,-54.09684
2020-12-01 00:59:01+00:00,317.3947,6.5,12.65,47.84626,-54.09684
2020-12-01 01:09:01+00:00,311.3647,6.5,12.65,47.84626,-54.09684
2020-12-01 01:19:01+00:00,305.9396,6.5,12.65,47.84626,-54.09684
2020-12-01 01:29:01+00:00,304.533,6.5,12.65,47.84626,-54.09684
2020-12-01 01:39:01+00:00,303.343,6.5,12.65,47.84626,-54.09684
2020-12-01 01:49:01+00:00,298.7614,6.5,12.65,47.84626,-54.09684
2020-12-01 01:59:01+00:00,293.2897,6.5,12.65,47.84626,-54.09684
2020-12-01 02:09:01+00:00,288.4247,6.5,12.65,47.84626,-54.09684
2020-12-01 02:19:01+00:00,283.4147,6.5,12.65,47.84626,-54.09684
2020-12-01 02:29:01+00:00,274.3647,6.5,12.65,47.84626,-54.09684
2020-12-01 02:39:01+00:00,266.1764,6.5,12.65,47.84626,-54.09684
2020-12-01 02:49:01+00:00,258.7931,6.49,12.65,47.84626,-54.09684
2020-12-01 02:59:01+00:00,251.5597,6.5,12.65,47.84626,-54.09684
2020-12-01 03:09:01+00:00,242.1914,6.5,12.65,47.84626,-54.09684
2020-12-01 03:19:01+00:00,236.4748,6.5,12.65,47.84626,-54.09684
2020-12-01 03:29:01+00:00,229.5148,6.4,12.65,47.84626,-54.09684
2020-12-01 03:39:01+00:00,220.3348,6.4,12.65,47.84626,-54.09684
2020-12-01 03:49:01+00:00,217.0281,6.4,12.65,47.84626,-54.09684
2020-12-01 03:59:01+00:00,217.5565,6.4,12.65,47.84626,-54.09684
2020-12-01 04:09:01+00:00,213.6381,6.4,12.65,47.84626,-54.09684
2020-12-01 04:19:01+00:00,204.6914,6.4,12.65,47.84626,-54.09684
2020-12-01 04:29:01+00:00,201.4398,6.4,12.65,47.84626,-54.09684
2020-12-01 04:39:01+00:00,199.5881,6.37,12.65,47.84626,-54.09684
2020-12-01 04:49:01+00:00,192.0098,6.38,12.65,47.84626,-54.09684
2020-12-01 04:59:01+00:00,186.4515,6.3,12.65,47.84626,-54.09684
2020-12-01 05:09:01+00:00,188.6265,6.3,12.65,47.84626,-54.09684
2020-12-01 05:19:01+00:00,184.8098,6.3,12.65,47.84626,-54.09684
2020-12-01 05:29:01+00:00,176.6198,6.2,12.65,47.84626,-54.09684
2020-12-01 05:39:01+00:00,181.2998,6.26,12.65,47.84626,-54.09684
2020-12-01 05:49:01+00:00,184.0881,6.3,12.65,47.84626,-54.09684
2020-12-01 05:59:01+00:00,175.6515,6.3,12.65,47.84626,-54.09684
2020-12-01 06:09:01+00:00,176.2115,6.3,12.65,47.84626,-54.09684
2020-12-01 06:19:01+00:00,186.4515,6.3,12.65,47.84626,-54.09684
2020-12-01 06:29:01+00:00,187.1648,6.3,12.65,47.84626,-54.09684
2020-12-01 06:39:01+00:00,181.7731,6.3,12.65,47.84626,-54.09684
2020-12-01 06:49:01+00:00,191.0831,6.3,12.65,47.84626,-54.09684
2020-12-01 06:59:01+00:00,198.0464,6.31,12.65,47.84626,-54.09684
2020-12-01 07:09:01+00:00,195.0732,6.3,12.65,47.84626,-54.09684
2020-12-01 07:19:01+00:00,198.6581,6.28,12.65,47.84626,-54.09684
2020-12-01 07:29:01+00:00,206.7948,6.3,12.65,47.84626,-54.09684
2020-12-01 07:39:01+00:00,207.6664,6.39,12.65,47.84626,-54.09684
2020-12-01 07:49:01+00:00,212.1815,6.4,12.65,47.84626,-54.09684
2020-12-01 07:59:01+00:00,219.8814,6.4,12.65,47.84626,-54.09684
2020-12-01 08:09:01+00:00,224.9898,6.4,12.65,47.84626,-54.09684
2020-12-01 08:19:01+00:00,230.5781,6.49,12.65,47.84626,-54.09684
2020-12-01 08:29:01+00:00,237.1697,6.5,12.65,47.84626,-54.09684
2020-12-01 08:39:01+00:00,241.4482,6.5,12.65,47.84626,-54.09684
2020-12-01 08:49:01+00:00,245.8514,6.5,12.65,47.84626,-54.09684
2020-12-01 08:59:01+00:00,253.0748,6.48,12.65,47.84626,-54.09684
2020-12-01 09:09:01+00:00,257.6597,6.49,12.65,47.84626,-54.09684
2020-12-01 09:19:01+00:00,254.8081,6.5,12.65,47.84626,-54.09684
2020-12-01 09:29:01+00:00,256.5197,6.5,12.65,47.84626,-54.09684
2020-12-01 09:39:01+00:00,269.958,6.5,12.65,47.84626,-54.09684
2020-12-01 09:49:01+00:00,280.9197,6.49,12.65,47.84626,-54.09684
2020-12-01 09:59:01+00:00,284.1914,6.48,12.65,47.84626,-54.09684
2020-12-01 10:09:01+00:00,291.6281,6.5,12.65,47.84626,-54.09684
2020-12-01 10:19:01+00:00,301.9514,6.5,12.65,47.84626,-54.09684
2020-12-01 10:29:01+00:00,306.038,6.5,12.65,47.84626,-54.09684
2020-12-01 10:39:01+00:00,306.603,6.5,12.65,47.84626,-54.09684
2020-12-01 10:49:01+00:00,313.58799999999997,6.5,12.65,47.84626,-54.09684
2020-12-01 10:59:01+00:00,326.6213,6.5,12.65,47.84626,-54.09684
2020-12-01 11:09:01+00:00,328.4564,6.5,12.65,47.84626,-54.09684
2020-12-01 11:19:01+00:00,326.8813,6.5,12.65,47.84626,-54.09684
2020-12-01 11:29:01+00:00,333.4196,6.5,12.65,47.84626,-54.09684
2020-12-01 11:39:01+00:00,336.7879,6.5,12.65,47.84626,-54.09684
2020-12-01 11:49:01+00:00,338.0546,6.5,12.65,47.84626,-54.09684
2020-12-01 11:59:01+00:00,341.923,6.5,12.65,47.84626,-54.09684
2020-12-01 12:09:01+00:00,340.2329,6.45,12.65,47.84626,-54.09684
2020-12-01 12:19:01+00:00,340.0563,6.48,13.37,47.84626,-54.09684
2020-12-01 12:29:01+00:00,341.233,6.5,13.37,47.84626,-54.09684
2020-12-01 12:39:01+00:00,339.9913,6.51,13.37,47.84626,-54.09684
2020-12-01 12:49:01+00:00,336.6863,6.51,13.37,47.84626,-54.09684
2020-12-01 12:59:01+00:00,337.7546,6.52,13.37,47.84626,-54.09684
2020-12-01 13:09:01+00:00,338.1413,6.43,13.37,47.84626,-54.09684
2020-12-01 13:19:01+00:00,332.2097,6.03,14.16,47.84626,-54.09684
2020-12-01 13:29:01+00:00,325.438,6.3,14.16,47.84626,-54.09684
2020-12-01 13:39:01+00:00,321.3963,6.3,14.16,47.84626,-54.09684
2020-12-01 13:49:01+00:00,312.878,6.32,14.16,47.84626,-54.09684
2020-12-01 13:59:01+00:00,303.0997,6.33,14.16,47.84626,-54.09684
2020-12-01 14:09:01+00:00,302.2747,6.3,14.16,47.84626,-54.09684
2020-12-01 14:19:01+00:00,307.8463,6.2,13.92,47.84626,-54.09684
2020-12-01 14:29:01+00:00,305.5896,6.1,13.92,47.84626,-54.09684
2020-12-01 14:39:01+00:00,298.0197,6.0,13.92,47.84626,-54.09684
2020-12-01 14:49:01+00:00,297.573,5.9,13.92,47.84626,-54.09684
2020-12-01 14:59:01+00:00,294.303,6.1,13.92,47.84626,-54.09684
2020-12-01 15:09:01+00:00,283.8796,5.95,13.92,47.84626,-54.09684
2020-12-01 15:19:01+00:00,272.7931,6.0,13.84,47.84626,-54.09684
2020-12-01 15:29:01+00:00,269.3931,6.1,13.84,47.84626,-54.09684
2020-12-01 15:39:01+00:00,259.433,6.17,13.84,47.84626,-54.09684
2020-12-01 15:49:01+00:00,246.1314,6.2,13.84,47.84626,-54.09684
2020-12-01 15:59:01+00:00,235.6997,6.21,13.84,47.84626,-54.09684
2020-12-01 16:09:01+00:00,228.2131,6.26,13.84,47.84626,-54.09684
2020-12-01 16:19:01+00:00,218.8864,6.3,14.08,47.84626,-54.09684
2020-12-01 16:29:01+00:00,210.9781,6.36,14.08,47.84626,-54.09684
2020-12-01 16:39:01+00:00,207.7298,6.4,14.08,47.84626,-54.09684
2020-12-01 16:49:01+00:00,195.8181,6.4,14.08,47.84626,-54.09684
2020-12-01 16:59:01+00:00,183.6548,6.4,14.08,47.84626,-54.09684
2020-12-01 17:09:01+00:00,177.4781,6.4,14.08,47.84626,-54.09684
2020-12-01 17:19:01+00:00,172.4049,6.4,14.16,47.84626,-54.09684
2020-12-01 17:29:01+00:00,168.3882,6.4,14.16,47.84626,-54.09684
2020-12-01 17:39:01+00:00,161.1982,6.4,14.16,47.84626,-54.09684
2020-12-01 17:49:01+00:00,154.9115,6.3,14.16,47.84626,-54.09684
2020-12-01 17:59:01+00:00,157.7665,6.3,14.16,47.84626,-54.09684
2020-12-01 18:09:01+00:00,161.6682,6.1,14.16,47.84626,-54.09684
2020-12-01 18:19:01+00:00,159.8798,5.99,14.4,47.84626,-54.09684
2020-12-01 18:29:01+00:00,160.1148,5.9,14.4,47.84626,-54.09684
2020-12-01 18:39:01+00:00,159.9865,6.0,14.4,47.84626,-54.09684
2020-12-01 18:49:01+00:00,160.8199,6.01,14.4,47.84626,-54.09684
2020-12-01 18:59:01+00:00,165.3382,6.0,14.4,47.84626,-54.09684
2020-12-01 19:09:01+00:00,169.5381,6.0,14.4,47.84626,-54.09684
2020-12-01 19:19:01+00:00,172.8299,5.9,13.84,47.84626,-54.09684
2020-12-01 19:29:01+00:00,174.0015,5.8,13.84,47.84626,-54.09684
2020-12-01 19:39:01+00:00,176.2332,5.7,13.84,47.84626,-54.09684
2020-12-01 19:49:01+00:00,178.7432,5.7,13.84,47.84626,-54.09684
2020-12-01 19:59:01+00:00,185.2198,5.73,13.84,47.84626,-54.09684
2020-12-01 20:09:01+00:00,195.5681,5.8,13.84,47.84626,-54.09684
2020-12-01 20:19:01+00:00,196.8881,5.8,13.29,47.84626,-54.09684
2020-12-01 20:29:01+00:00,198.3881,5.77,13.29,47.84626,-54.09684
2020-12-01 20:39:01+00:00,207.9114,5.77,13.29,47.84626,-54.09684
2020-12-01 20:49:01+00:00,221.2664,5.81,13.29,47.84626,-54.09684
2020-12-01 20:59:01+00:00,228.6913,5.8,13.29,47.84626,-54.09684
2020-12-01 21:09:01+00:00,229.6314,5.8,13.29,47.84626,-54.09684
2020-12-01 21:19:01+00:00,231.4131,5.8,12.97,47.84626,-54.09684
2020-12-01 21:29:01+00:00,232.8248,5.79,12.97,47.84626,-54.09684
2020-12-01 21:39:01+00:00,235.8465,5.79,12.97,47.84626,-54.09684
2020-12-01 21:49:01+00:00,238.8614,5.8,12.97,47.84626,-54.09684
2020-12-01 21:59:01+00:00,244.9848,5.89,12.97,47.84626,-54.09684
2020-12-01 22:09:01+00:00,250.318,5.9,12.97,47.84626,-54.09684
2020-12-01 22:19:01+00:00,254.2581,5.9,12.73,47.84626,-54.09684
2020-12-01 22:29:01+00:00,264.5281,5.96,12.73,47.84626,-54.09684
2020-12-01 22:39:01+00:00,278.6114,5.97,12.73,47.84626,-54.09684
2020-12-01 22:49:01+00:00,283.0813,5.97,12.73,47.84626,-54.09684
2020-12-01 22:59:01+00:00,283.7747,5.9,12.73,47.84626,-54.09684
2020-12-01 23:09:01+00:00,292.0097,5.9,12.73,47.84626,-54.09684
2020-12-01 23:19:01+00:00,297.4581,5.93,12.73,47.84626,-54.09684
2020-12-01 23:29:01+00:00,297.9396,5.9,12.73,47.84626,-54.09684
2020-12-01 23:39:01+00:00,298.4797,5.86,12.73,47.84626,-54.09684
2020-12-01 23:49:01+00:00,302.6697,5.9,12.73,47.84626,-54.09684
2020-12-01 23:59:01+00:00,303.5696,5.9,12.73,47.84626,-54.09684
